| time (UTC) | temp F | wind direction | speed MPH | gust MPH | rain 1hr in | rain 24hr in | rain mn in | humidity % | barometer mb |
| 20260510101557 | 56 | 63 | 8.0 | 17.0 | 0.00 | 0.00 | 0.00 | 76 | 1014.8 |
| 20260510100115 | 56 | 32 | 7.0 | 16.0 | 0.00 | 0.00 | 0.00 | 76 | 1014.8 |
| 20260510094603 | 57 | 48 | 6.0 | 15.0 | 0.00 | 0.00 | 0.00 | 76 | 1015.1 |
| 20260510093100 | 57 | 33 | 5.0 | 13.0 | 0.00 | 0.00 | 0.00 | 76 | 1015.1 |
| 20260510091553 | 58 | 32 | 6.0 | 17.0 | 0.00 | 0.00 | 0.00 | 75 | 1015.4 |
| 20260510090058 | 58 | 46 | 5.0 | 13.0 | 0.00 | 0.00 | 0.00 | 75 | 1015.3 |
| 20260510084609 | 58 | 20 | 6.0 | 16.0 | 0.00 | 0.00 | 0.00 | 76 | 1015.4 |
| 20260510083050 | 58 | 80 | 5.0 | 12.0 | 0.00 | 0.00 | 0.00 | 76 | 1015.5 |
| 20260510081552 | 58 | 67 | 4.0 | 12.0 | 0.00 | 0.00 | 0.00 | 75 | 1015.5 |
| 20260510080042 | 57 | 53 | 6.0 | 15.0 | 0.00 | 0.00 | 0.00 | 71 | 1015.5 |
| 20260510074539 | 57 | 53 | 4.0 | 14.0 | 0.00 | 0.00 | 0.00 | 73 | 1015.5 |
| 20260510073036 | 56 | 31 | 5.0 | 15.0 | 0.00 | 0.00 | 0.00 | 75 | 1015.5 |
| 20260510071540 | 56 | 103 | 6.0 | 13.0 | 0.00 | 0.00 | 0.00 | 76 | 1015.6 |
| 20260510070039 | 56 | 40 | 4.0 | 16.0 | 0.00 | 0.00 | 0.00 | 72 | 1015.6 |
| 20260510064531 | 56 | 32 | 6.0 | 13.0 | 0.00 | 0.00 | 0.00 | 69 | 1015.5 |
| 20260510063026 | 55 | 67 | 5.0 | 13.0 | 0.00 | 0.00 | 0.00 | 67 | 1015.5 |
| 20260510061524 | 55 | 39 | 4.0 | 13.0 | 0.00 | 0.00 | 0.00 | 69 | 1015.4 |
| 20260510060024 | 54 | 65 | 4.0 | 13.0 | 0.00 | 0.00 | 0.00 | 70 | 1015.4 |
| 20260510054521 | 54 | 351 | 4.0 | 13.0 | 0.00 | 0.00 | 0.00 | 71 | 1015.5 |
| 20260510053022 | 54 | 59 | 5.0 | 12.0 | 0.00 | 0.00 | 0.00 | 73 | 1015.5 |
| 20260510051519 | 54 | 55 | 4.0 | 13.0 | 0.00 | 0.00 | 0.00 | 75 | 1015.5 |
| 20260510050014 | 54 | 59 | 6.0 | 14.0 | 0.00 | 0.00 | 0.00 | 75 | 1015.3 |
| 20260510044523 | 54 | 46 | 4.0 | 12.0 | 0.00 | 0.00 | 0.00 | 75 | 1015.2 |
| 20260510043010 | 53 | 41 | 4.0 | 15.0 | 0.00 | 0.00 | 0.00 | 77 | 1015.4 |
| 20260510041509 | 53 | 76 | 4.0 | 14.0 | 0.00 | 0.00 | 0.00 | 78 | 1015.6 |
| 20260510040010 | 53 | 44 | 4.0 | 13.0 | 0.00 | 0.00 | 0.00 | 80 | 1015.5 |
| 20260510034504 | 54 | 49 | 6.0 | 13.0 | 0.00 | 0.00 | 0.00 | 82 | 1015.4 |
| 20260510033139 | 54 | 360 | 4.0 | 16.0 | 0.00 | 0.00 | 0.00 | 82 | 1015.4 |
| 20260510031624 | 54 | 38 | 4.0 | 13.0 | 0.00 | 0.00 | 0.00 | 82 | 1015.4 |
| 20260510030104 | 54 | 62 | 5.0 | 14.0 | 0.00 | 0.00 | 0.00 | 82 | 1015.4 |
| 20260510024652 | 54 | 38 | 4.0 | 12.0 | 0.00 | 0.00 | 0.00 | 82 | 1015.5 |
| 20260510023032 | 54 | 103 | 3.0 | 11.0 | 0.00 | 0.00 | 0.00 | 82 | 1015.5 |
| 20260510021532 | 54 | 18 | 4.0 | 11.0 | 0.00 | 0.00 | 0.00 | 82 | 1015.5 |
| 20260510020027 | 54 | 32 | 3.0 | 10.0 | 0.00 | 0.00 | 0.00 | 82 | 1015.7 |
| 20260510014523 | 54 | 27 | 3.0 | 11.0 | 0.00 | 0.00 | 0.00 | 83 | 1015.7 |
| 20260510013022 | 54 | 43 | 4.0 | 15.0 | 0.00 | 0.00 | 0.00 | 83 | 1015.8 |
| 20260510011534 | 54 | 29 | 4.0 | 13.0 | 0.00 | 0.00 | 0.00 | 83 | 1015.8 |
| 20260510010019 | 54 | 22 | 3.0 | 12.0 | 0.00 | 0.00 | 0.00 | 83 | 1015.6 |
| 20260510004516 | 54 | 40 | 2.0 | 10.0 | 0.00 | 0.00 | 0.00 | 83 | 1015.8 |
| 20260510003015 | 54 | 59 | 3.0 | 12.0 | 0.00 | 0.00 | 0.00 | 83 | 1015.8 |
| 20260510001511 | 54 | 33 | 3.0 | 12.0 | 0.00 | 0.00 | 0.00 | 84 | 1016.1 |
| 20260510000014 | 55 | 74 | 4.0 | 11.0 | 0.00 | 0.00 | 0.00 | 84 | 1016.4 |
| 20260509234506 | 55 | 305 | 3.0 | 12.0 | 0.00 | 0.00 | 0.00 | 83 | 1016.4 |
| 20260509233004 | 55 | 41 | 3.0 | 11.0 | 0.00 | 0.00 | 0.00 | 83 | 1016.5 |
| 20260509231504 | 55 | 49 | 5.0 | 11.0 | 0.00 | 0.00 | 0.00 | 82 | 1016.4 |
| 20260509230002 | 55 | 21 | 3.0 | 11.0 | 0.00 | 0.00 | 0.00 | 81 | 1016.3 |
| 20260509224559 | 55 | 57 | 4.0 | 11.0 | 0.00 | 0.00 | 0.00 | 80 | 1016.3 |
| 20260509223105 | 55 | 58 | 3.0 | 9.0 | 0.00 | 0.00 | 0.00 | 80 | 1016.3 |
| 20260509221559 | 55 | 355 | 4.0 | 12.0 | 0.00 | 0.00 | 0.00 | 80 | 1016.4 |
| 20260509220056 | 55 | 43 | 5.0 | 11.0 | 0.00 | 0.00 | 0.00 | 80 | 1016.3 |
| 20260509214555 | 55 | 29 | 4.0 | 11.0 | 0.00 | 0.00 | 0.00 | 81 | 1016.3 |
| 20260509213055 | 55 | 34 | 3.0 | 13.0 | 0.00 | 0.00 | 0.00 | 82 | 1016.4 |
| 20260509211554 | 55 | 35 | 3.0 | 10.0 | 0.00 | 0.00 | 0.00 | 82 | 1016.4 |
| 20260509204555 | 55 | 58 | 4.0 | 10.0 | 0.00 | 0.00 | 0.00 | 82 | 1016.3 |
| 20260509203052 | 55 | 44 | 3.0 | 8.0 | 0.00 | 0.00 | 0.00 | 83 | 1016.2 |
| 20260509201551 | 55 | 16 | 3.0 | 12.0 | 0.00 | 0.00 | 0.00 | 83 | 1016.2 |
| 20260509200105 | 56 | 45 | 4.0 | 12.0 | 0.00 | 0.00 | 0.00 | 82 | 1016.2 |
| 20260509194550 | 56 | 330 | 2.0 | 7.0 | 0.00 | 0.00 | 0.00 | 82 | 1016.1 |
| 20260509193051 | 56 | 33 | 3.0 | 11.0 | 0.00 | 0.00 | 0.00 | 81 | 1016.1 |
| 20260509191549 | 56 | 69 | 3.0 | 10.0 | 0.00 | 0.00 | 0.00 | 81 | 1016.1 |
| 20260509190048 | 56 | 67 | 1.0 | 8.0 | 0.00 | 0.00 | 0.00 | 80 | 1016.0 |
| 20260509184600 | 57 | 64 | 3.0 | 9.0 | 0.00 | 0.00 | 0.00 | 80 | 1016.0 |
| 20260509183048 | 57 | 40 | 3.0 | 10.0 | 0.00 | 0.00 | 0.00 | 78 | 1016.0 |
| 20260509181600 | 58 | 345 | 1.0 | 9.0 | 0.00 | 0.00 | 0.00 | 77 | 1015.9 |
| 20260509180046 | 58 | 59 | 3.0 | 7.0 | 0.00 | 0.00 | 0.00 | 76 | 1015.8 |
| 20260509174545 | 58 | 56 | 3.0 | 8.0 | 0.00 | 0.00 | 0.00 | 76 | 1015.8 |
| 20260509173054 | 59 | 351 | 3.0 | 7.0 | 0.00 | 0.00 | 0.00 | 76 | 1015.8 |
| 20260509171543 | 59 | 50 | 3.0 | 10.0 | 0.00 | 0.00 | 0.00 | 75 | 1015.8 |
| 20260509170042 | 59 | 38 | 3.0 | 10.0 | 0.00 | 0.00 | 0.00 | 74 | 1016.0 |
| 20260509164540 | 60 | 355 | 3.0 | 10.0 | 0.00 | 0.00 | 0.00 | 73 | 1016.3 |
| 20260509163040 | 61 | 13 | 4.0 | 10.0 | 0.00 | 0.00 | 0.00 | 72 | 1016.3 |
| 20260509161538 | 62 | 90 | 3.0 | 10.0 | 0.00 | 0.00 | 0.00 | 70 | 1016.2 |
| 20260509160043 | 62 | 55 | 2.0 | 10.0 | 0.00 | 0.00 | 0.00 | 70 | 1016.2 |
| 20260509154541 | 63 | 44 | 3.0 | 11.0 | 0.00 | 0.00 | 0.00 | 69 | 1016.1 |
| 20260509153043 | 63 | 42 | 4.0 | 13.0 | 0.00 | 0.00 | 0.00 | 70 | 1016.0 |
| 20260509151535 | 63 | 23 | 3.0 | 10.0 | 0.00 | 0.00 | 0.00 | 70 | 1016.1 |
| 20260509150039 | 64 | 40 | 5.0 | 11.0 | 0.00 | 0.00 | 0.00 | 68 | 1016.2 |
| 20260509144548 | 64 | 332 | 4.0 | 12.0 | 0.00 | 0.00 | 0.00 | 66 | 1016.1 |
| 20260509143031 | 65 | 297 | 2.0 | 9.0 | 0.00 | 0.00 | 0.00 | 66 | 1016.3 |
| 20260509141532 | 65 | 92 | 3.0 | 10.0 | 0.00 | 0.00 | 0.00 | 66 | 1016.3 |
| 20260509140028 | 64 | 49 | 3.0 | 12.0 | 0.00 | 0.00 | 0.00 | 68 | 1016.4 |
| 20260509134545 | 64 | 46 | 3.0 | 11.0 | 0.00 | 0.00 | 0.00 | 68 | 1016.5 |
| 20260509133026 | 65 | 28 | 3.0 | 9.0 | 0.00 | 0.00 | 0.00 | 69 | 1016.5 |
| 20260509131524 | 65 | 9 | 2.0 | 9.0 | 0.00 | 0.00 | 0.00 | 69 | 1016.7 |
| 20260509130025 | 64 | 53 | 3.0 | 8.0 | 0.00 | 0.00 | 0.00 | 70 | 1016.8 |
| 20260509124521 | 64 | 53 | 3.0 | 11.0 | 0.00 | 0.00 | 0.00 | 70 | 1016.9 |
| 20260509123020 | 63 | 60 | 4.0 | 10.0 | 0.00 | 0.00 | 0.00 | 71 | 1017.0 |
| 20260509121537 | 65 | 355 | 4.0 | 11.0 | 0.00 | 0.00 | 0.00 | 69 | 1017.1 |
| 20260509120017 | 65 | 24 | 3.0 | 6.0 | 0.00 | 0.00 | 0.00 | 65 | 1017.3 |
| 20260509114528 | 65 | 333 | 3.0 | 9.0 | 0.00 | 0.00 | 0.00 | 61 | 1017.3 |
| 20260509113022 | 66 | 341 | 3.0 | 9.0 | 0.00 | 0.00 | 0.00 | 59 | 1017.5 |
| 20260509111513 | 67 | 15 | 3.0 | 11.0 | 0.00 | 0.00 | 0.00 | 52 | 1017.5 |
| 20260509110011 | 67 | 14 | 3.0 | 9.0 | 0.00 | 0.00 | 0.00 | 50 | 1017.6 |
| 20260509104508 | 66 | 44 | 4.0 | 11.0 | 0.00 | 0.00 | 0.00 | 48 | 1017.8 |
| 20260509103005 | 64 | 81 | 3.0 | 11.0 | 0.00 | 0.00 | 0.00 | 65 | 1017.7 |